Вернуться в каталог

DASH/VEP 3

АктивенНаукаGTO
NORAD 27368·PAYLOAD·🇯🇵 Japan

Запущен Feb 4, 2002 с Tanegashima Space Center

Loading…

TLE

УстаревающийSource: Space-Track

Эпоха: Sep 14, 2026, 09:34 UTC

1 27368U 02003B   26257.39908210  .00000490  00000-0  21299-2 0  9993
2 27368  28.5676 216.9069 7128706   0.3588 359.7846  2.37171895208140

Отслеживайте DASH/VEP 3 в реальном времени с AllMySat

Download on the App Store